FW1419 Weather Reports


Display with metric or nautical units.
time (UTC)temp
F
wind
direction
speed
MPH
gust
MPH
rain 1hr
in
rain 24hr
in
rain mn
in
humidity
%
barometer
mb
20260905054327 66 192 0.0 0.0 0.00 0.00 0.00 45 1013.5
20260905053817 66 192 0.0 0.0 0.00 0.00 0.00 43 1013.4
20260905053330 67 192 0.0 0.0 0.00 0.00 0.00 42 1013.5
20260905052841 67 192 0.0 0.0 0.00 0.00 0.00 41 1013.5
20260905052316 68 192 0.0 0.0 0.00 0.00 0.00 38 1013.5
20260905051828 68 192 0.0 0.0 0.00 0.00 0.00 37 1013.5
20260905051319 68 192 0.0 0.0 0.00 0.00 0.00 36 1013.6
20260905050851 69 192 0.0 0.0 0.00 0.00 0.00 35 1013.5
20260905050321 69 192 0.0 0.0 0.00 0.00 0.00 35 1013.4
20260905045813 69 192 0.0 0.0 0.00 0.00 0.00 35 1013.5
20260905045325 69 192 0.0 0.0 0.00 0.00 0.00 34 1013.4
20260905044817 69 192 0.0 0.0 0.00 0.00 0.00 33 1013.5
20260905044330 69 216 0.0 0.0 0.00 0.00 0.00 33 1013.5
20260905043824 69 224 0.0 0.0 0.00 0.00 0.00 34 1013.4
20260905043315 70 224 0.0 0.0 0.00 0.00 0.00 32 1013.4
20260905042827 70 224 0.0 0.0 0.00 0.00 0.00 33 1013.5
20260905042339 70 224 0.0 0.0 0.00 0.00 0.00 36 1013.5
20260905041829 71 224 0.0 0.0 0.00 0.00 0.00 36 1013.4
20260905041321 71 224 0.0 0.0 0.00 0.00 0.00 36 1013.4
20260905040813 72 224 0.0 0.0 0.00 0.00 0.00 36 1013.4
20260905040325 72 224 0.0 0.0 0.00 0.00 0.00 35 1013.4
20260905035816 72 224 0.0 2.0 0.00 0.00 0.00 34 1013.2
20260905035311 72 229 1.0 2.0 0.00 0.00 0.00 35 1013.1
20260905034822 72 205 1.0 2.0 0.00 0.00 0.00 34 1013.1
20260905034314 72 271 0.0 0.0 0.00 0.00 0.00 34 1013.1
20260905033846 72 271 0.0 0.0 0.00 0.00 0.00 33 1013.1
20260905033316 73 271 0.0 1.0 0.00 0.00 0.00 33 1013.1
20260905032828 73 271 0.0 1.0 0.00 0.00 0.00 33 1013.1
20260905032319 73 271 0.0 1.0 0.00 0.00 0.00 33 1013.0
20260905031830 73 271 0.0 1.0 0.00 0.00 0.00 33 1012.9
20260905031321 74 271 0.0 1.0 0.00 0.00 0.00 33 1012.8
20260905030836 74 271 0.0 0.0 0.00 0.00 0.00 32 1012.8
20260905030325 74 271 0.0 1.0 0.00 0.00 0.00 32 1012.7
20260905025838 75 271 0.0 1.0 0.00 0.00 0.00 32 1012.6
20260905025329 75 271 0.0 1.0 0.00 0.00 0.00 31 1012.5
20260905024821 75 271 0.0 1.0 0.00 0.00 0.00 31 1012.4
20260905024313 76 271 0.0 1.0 0.00 0.00 0.00 31 1012.3
20260905023823 76 261 0.0 2.0 0.00 0.00 0.00 30 1012.3
20260905023314 76 205 1.0 2.0 0.00 0.00 0.00 30 1012.3
20260905022824 77 271 1.0 2.0 0.00 0.00 0.00 29 1012.2
20260905022320 77 265 0.0 3.0 0.00 0.00 0.00 29 1012.3
20260905021831 77 265 0.0 5.0 0.00 0.00 0.00 29 1012.3
20260905021321 78 203 0.0 5.0 0.00 0.00 0.00 29 1012.1
20260905020814 78 235 2.0 5.0 0.00 0.00 0.00 29 1012.2
20260905020325 79 255 0.0 7.0 0.00 0.00 0.00 29 1012.1
20260905015816 79 205 3.0 7.0 0.00 0.00 0.00 28 1012.0
20260905015327 79 206 1.0 6.0 0.00 0.00 0.00 28 1012.1
20260905014818 79 214 3.0 8.0 0.00 0.00 0.00 28 1012.0
20260905014350 80 232 4.0 8.0 0.00 0.00 0.00 28 1012.1
20260905013825 80 188 2.0 6.0 0.00 0.00 0.00 28 1012.1
20260905013316 80 208 3.0 8.0 0.00 0.00 0.00 28 1012.0
20260905012830 81 271 4.0 8.0 0.00 0.00 0.00 27 1011.9
20260905012320 81 204 0.0 8.0 0.00 0.00 0.00 28 1012.0
20260905011852 81 235 3.0 11.0 0.00 0.00 0.00 28 1012.0
20260905011322 82 192 3.0 11.0 0.00 0.00 0.00 28 1012.1
20260905010814 82 226 5.0 11.0 0.00 0.00 0.00 27 1012.1
20260905010325 83 266 6.0 11.0 0.00 0.00 0.00 26 1012.1
20260905005816 84 198 4.0 8.0 0.00 0.00 0.00 26 1012.1
20260905005327 84 203 3.0 9.0 0.00 0.00 0.00 26 1012.1
20260905004819 84 192 5.0 10.0 0.00 0.00 0.00 25 1012.1
20260905004315 84 214 5.0 10.0 0.00 0.00 0.00 26 1012.0
20260905003826 85 183 5.0 10.0 0.00 0.00 0.00 25 1012.0
20260905003317 85 193 4.0 10.0 0.00 0.00 0.00 26 1012.0
20260905002848 85 247 5.0 10.0 0.00 0.00 0.00 26 1011.9
20260905002319 85 207 5.0 9.0 0.00 0.00 0.00 27 1011.8
20260905001828 85 228 5.0 10.0 0.00 0.00 0.00 26 1011.8
20260905001321 85 205 2.0 12.0 0.00 0.00 0.00 26 1011.7
20260905000834 85 238 5.0 11.0 0.00 0.00 0.00 26 1011.8
20260905000325 86 215 6.0 11.0 0.00 0.00 0.00 26 1011.8
20260904235815 86 224 4.0 9.0 0.00 0.00 0.00 26 1011.7
20260904235330 86 256 4.0 9.0 0.00 0.00 0.00 25 1011.8
20260904234821 86 187 3.0 12.0 0.00 0.00 0.00 26 1011.7
20260904234311 86 212 5.0 13.0 0.00 0.00 0.00 26 1011.7
20260904233823 86 233 6.0 12.0 0.00 0.00 0.00 25 1011.8
20260904233313 86 263 3.0 11.0 0.00 0.00 0.00 24 1011.8
20260904232825 86 217 3.0 11.0 0.00 0.00 0.00 25 1011.8
20260904232336 86 282 4.0 11.0 0.00 0.00 0.00 24 1011.8
20260904231826 86 219 8.0 12.0 0.00 0.00 0.00 24 1011.9
20260904231317 86 213 5.0 12.0 0.00 0.00 0.00 25 1011.8
20260904230813 87 236 7.0 11.0 0.00 0.00 0.00 24 1011.8
20260904230325 87 201 3.0 8.0 0.00 0.00 0.00 25 1011.8
20260904225836 87 224 3.0 8.0 0.00 0.00 0.00 25 1011.8
20260904225347 87 282 4.0 10.0 0.00 0.00 0.00 26 1011.9
20260904224837 87 210 6.0 10.0 0.00 0.00 0.00 26 1011.8
20260904224348 87 236 6.0 10.0 0.00 0.00 0.00 25 1011.8
20260904223818 87 209 6.0 9.0 0.00 0.00 0.00 25 1011.8
20260904223330 88 245 2.0 7.0 0.00 0.00 0.00 25 1011.9
20260904222822 88 206 3.0 7.0 0.00 0.00 0.00 26 1011.9
20260904222314 87 246 3.0 6.0 0.00 0.00 0.00 25 1011.9
20260904221826 87 239 3.0 13.0 0.00 0.00 0.00 25 1011.9
20260904221322 88 288 7.0 13.0 0.00 0.00 0.00 24 1011.9
20260904220813 88 242 4.0 10.0 0.00 0.00 0.00 24 1011.8
20260904220325 87 250 2.0 8.0 0.00 0.00 0.00 23 1011.8
20260904215836 87 258 3.0 8.0 0.00 0.00 0.00 23 1012.0
20260904215327 87 223 4.0 8.0 0.00 0.00 0.00 23 1012.0
20260904214817 87 221 2.0 7.0 0.00 0.00 0.00 23 1012.0
20260904214348 88 222 2.0 10.0 0.00 0.00 0.00 23 1012.0
20260904213819 87 240 5.0 10.0 0.00 0.00 0.00 22 1012.1
20260904213351 88 224 2.0 6.0 0.00 0.00 0.00 21 1012.0
20260904212841 87 164 2.0 7.0 0.00 0.00 0.00 23 1012.1
20260904212313 86 231 2.0 9.0 0.00 0.00 0.00 23 1012.1
20260904211845 86 280 4.0 9.0 0.00 0.00 0.00 22 1012.1
20260904211318 86 298 4.0 8.0 0.00 0.00 0.00 20 1012.1
20260904210829 86 309 3.0 8.0 0.00 0.00 0.00 22 1012.3
20260904210320 87 274 1.0 7.0 0.00 0.00 0.00 22 1012.3
20260904205831 86 253 2.0 7.0 0.00 0.00 0.00 21 1012.4
20260904205323 85 80 1.0 7.0 0.00 0.00 0.00 22 1012.4
20260904204834 85 290 4.0 7.0 0.00 0.00 0.00 22 1012.5
20260904204347 85 291 3.0 7.0 0.00 0.00 0.00 22 1012.5
20260904203836 85 233 2.0 8.0 0.00 0.00 0.00 24 1012.4
20260904203347 84 234 4.0 8.0 0.00 0.00 0.00 25 1012.5
20260904202817 85 283 4.0 9.0 0.00 0.00 0.00 25 1012.5
20260904202328 85 276 3.0 9.0 0.00 0.00 0.00 27 1012.6
20260904201825 85 275 1.0 6.0 0.00 0.00 0.00 28 1012.7
20260904201316 84 234 2.0 5.0 0.00 0.00 0.00 30 1012.6
20260904200828 83 278 2.0 7.0 0.00 0.00 0.00 30 1012.6
20260904200320 83 297 3.0 8.0 0.00 0.00 0.00 29 1012.7
20260904195813 83 244 1.0 10.0 0.00 0.00 0.00 30 1012.7
20260904195345 83 223 3.0 6.0 0.00 0.00 0.00 30 1012.8
20260904194836 82 279 1.0 6.0 0.00 0.00 0.00 30 1012.9
20260904194327 82 262 2.0 10.0 0.00 0.00 0.00 32 1013.0
20260904193819 81 248 4.0 10.0 0.00 0.00 0.00 33 1013.0
20260904193351 81 248 3.0 8.0 0.00 0.00 0.00 33 1013.0
20260904192843 80 285 2.0 6.0 0.00 0.00 0.00 34 1013.2
20260904192317 81 301 2.0 5.0 0.00 0.00 0.00 35 1013.2
20260904191828 80 241 2.0 7.0 0.00 0.00 0.00 34 1013.3
20260904191320 79 240 4.0 7.0 0.00 0.00 0.00 38 1013.4
20260904190812 79 322 3.0 8.0 0.00 0.00 0.00 39 1013.5
20260904190325 79 199 5.0 8.0 0.00 0.00 0.00 40 1013.5
20260904185816 79 228 1.0 6.0 0.00 0.00 0.00 38 1013.5
20260904185328 79 271 2.0 6.0 0.00 0.00 0.00 38 1013.7
20260904184838 79 324 1.0 4.0 0.00 0.00 0.00 39 1013.7
20260904184313 78 242 1.0 6.0 0.00 0.00 0.00 40 1013.8
20260904183824 77 243 0.0 7.0 0.00 0.00 0.00 45 1013.8
20260904183317 77 212 3.0 7.0 0.00 0.00 0.00 45 1013.8
20260904182828 76 252 0.0 7.0 0.00 0.00 0.00 46 1013.8
20260904182340 76 278 3.0 7.0 0.00 0.00 0.00 47 1013.8
20260904181852 76 192 0.0 5.0 0.00 0.00 0.00 49 1013.9
20260904181322 76 165 3.0 10.0 0.00 0.00 0.00 49 1013.8
20260904180833 76 205 3.0 8.0 0.00 0.00 0.00 49 1013.8
20260904180323 75 290 1.0 7.0 0.00 0.00 0.00 51 1013.8
20260904175814 74 281 0.0 5.0 0.00 0.00 0.00 52 1013.8
20260904175326 74 22 1.0 5.0 0.00 0.00 0.00 52 1014.0
20260904174820 74 263 2.0 6.0 0.00 0.00 0.00 51 1014.0
20260904174312 74 218 3.0 6.0 0.00 0.00 0.00 52 1013.9
20260904173822 73 216 3.0 5.0 0.00 0.00 0.00 53 1013.9
20260904173314 73 236 1.0 4.0 0.00 0.00 0.00 54 1013.9
20260904172825 73 276 1.0 6.0 0.00 0.00 0.00 55 1013.9
20260904172316 72 245 2.0 6.0 0.00 0.00 0.00 56 1013.9
20260904171829 71 314 4.0 6.0 0.00 0.00 0.00 56 1013.8
20260904171319 71 58 1.0 3.0 0.00 0.00 0.00 57 1013.9
20260904170851 71 58 1.0 2.0 0.00 0.00 0.00 59 1013.8
20260904170321 70 40 0.0 4.0 0.00 0.00 0.00 58 1013.7
20260904165816 69 18 2.0 6.0 0.00 0.00 0.00 61 1013.8
20260904165329 69 315 3.0 6.0 0.00 0.00 0.00 62 1013.9
20260904164821 69 304 1.0 5.0 0.00 0.00 0.00 64 1013.7
20260904164312 68 306 1.0 5.0 0.00 0.00 0.00 64 1013.7
20260904163824 68 314 2.0 5.0 0.00 0.00 0.00 64 1013.6
20260904163315 68 296 0.0 4.0 0.00 0.00 0.00 65 1013.6
20260904162827 67 316 1.0 4.0 0.00 0.00 0.00 65 1013.5
20260904162320 68 304 0.0 6.0 0.00 0.00 0.00 65 1013.5
20260904161815 67 7 1.0 6.0 0.00 0.00 0.00 66 1013.4
20260904161326 67 300 1.0 3.0 0.00 0.00 0.00 65 1013.4
20260904160818 67 8 0.0 3.0 0.00 0.00 0.00 62 1013.3
20260904160331 67 304 0.0 0.0 0.00 0.00 0.00 62 1013.2
20260904155821 67 48 0.0 0.0 0.00 0.00 0.00 65 1013.2
20260904155312 67 261 0.0 0.0 0.00 0.00 0.00 64 1013.3
20260904154825 67 270 0.0 0.0 0.00 0.00 0.00 65 1013.3
20260904154336 66 264 0.0 1.0 0.00 0.00 0.00 65 1013.2
20260904153829 67 272 0.0 1.0 0.00 0.00 0.00 63 1013.3
20260904153321 66 196 0.0 0.0 0.00 0.00 0.00 65 1013.3
20260904152816 66 210 0.0 0.0 0.00 0.00 0.00 65 1013.3
20260904152348 66 90 0.0 0.0 0.00 0.00 0.00 65 1013.3
20260904151818 65 90 0.0 0.0 0.00 0.00 0.00 67 1013.4
20260904151350 66 90 0.0 0.0 0.00 0.00 0.00 63 1013.3
20260904150821 66 198 0.0 0.0 0.00 0.00 0.00 60 1013.3
20260904150312 65 198 0.0 0.0 0.00 0.00 0.00 60 1013.4
20260904145823 64 198 0.0 0.0 0.00 0.00 0.00 61 1013.3
20260904145314 63 198 0.0 0.0 0.00 0.00 0.00 60 1013.3
20260904144826 63 202 0.0 0.0 0.00 0.00 0.00 60 1013.3
20260904144321 64 202 0.0 0.0 0.00 0.00 0.00 60 1013.3
20260904143812 64 202 0.0 0.0 0.00 0.00 0.00 63 1013.4
20260904143323 62 202 0.0 0.0 0.00 0.00 0.00 71 1013.3
20260904142814 60 202 0.0 0.0 0.00 0.00 0.00 75 1013.3
20260904142346 58 202 0.0 0.0 0.00 0.00 0.00 78 1013.3
20260904141836 57 202 0.0 0.0 0.00 0.00 0.00 80 1013.2
20260904141348 55 202 0.0 0.0 0.00 0.00 0.00 82 1013.2
20260904140818 54 202 0.0 0.0 0.00 0.00 0.00 83 1013.2
20260904140330 53 202 0.0 0.0 0.00 0.00 0.00 83 1013.1
20260904135822 53 202 0.0 0.0 0.00 0.00 0.00 83 1013.1
20260904135317 53 202 0.0 0.0 0.00 0.00 0.00 83 1013.0
20260904134828 53 202 0.0 0.0 0.00 0.00 0.00 83 1013.0
20260904134319 53 202 0.0 0.0 0.00 0.00 0.00 83 1012.8
20260904133831 53 202 0.0 0.0 0.00 0.00 0.00 82 1012.9
20260904133343 53 202 0.0 0.0 0.00 0.00 0.00 82 1012.8
20260904132812 53 202 0.0 0.0 0.00 0.00 0.00 81 1012.8
20260904132323 53 202 0.0 0.0 0.00 0.00 0.00 81 1012.7
20260904131814 53 202 0.0 0.0 0.00 0.00 0.00 81 1012.8
20260904131326 54 202 0.0 0.0 0.00 0.00 0.00 81 1012.8
20260904130818 54 202 0.0 0.0 0.00 0.00 0.00 81 1012.7
20260904130312 54 202 0.0 0.0 0.00 0.00 0.00 81 1012.6
20260904125823 54 202 0.0 0.0 0.00 0.00 0.00 81 1012.6
20260904125316 54 202 0.0 0.0 0.00 0.00 0.00 80 1012.6
20260904124827 54 202 0.0 0.0 0.00 0.00 0.00 79 1012.5
20260904124339 54 202 0.0 0.0 0.00 0.00 0.00 79 1012.6
20260904123830 54 202 0.0 0.0 0.00 0.00 0.00 79 1012.5
20260904123321 55 202 0.0 0.0 0.00 0.00 0.00 79 1012.5
20260904122812 55 202 0.0 0.0 0.00 0.00 0.00 79 1012.5
20260904122323 55 202 0.0 0.0 0.00 0.00 0.00 79 1012.4
20260904121818 55 202 0.0 0.0 0.00 0.00 0.00 80 1012.4
20260904121330 55 202 0.0 0.0 0.00 0.00 0.00 80 1012.5
20260904120821 55 202 0.0 0.0 0.00 0.00 0.00 80 1012.4
20260904120313 55 202 0.0 0.0 0.00 0.00 0.00 79 1012.5
20260904115826 55 202 0.0 0.0 0.00 0.00 0.00 79 1012.5
20260904115317 55 202 0.0 0.0 0.00 0.00 0.00 79 1012.6
20260904114827 55 202 0.0 0.0 0.00 0.00 0.00 78 1012.6
20260904114318 55 202 0.0 0.0 0.00 0.00 0.00 78 1012.5
20260904113850 55 202 0.0 0.0 0.00 0.00 0.00 78 1012.6
20260904113320 55 202 0.0 0.0 0.00 0.00 0.00 78 1012.5
20260904112816 55 202 0.0 0.0 0.00 0.00 0.00 78 1012.4
20260904112328 55 202 0.0 0.0 0.00 0.00 0.00 78 1012.4
20260904111819 55 202 0.0 0.0 0.00 0.00 0.00 78 1012.4
20260904111330 55 202 0.0 0.0 0.00 0.00 0.00 78 1012.4
20260904110823 55 202 0.0 0.0 0.00 0.00 0.00 79 1012.4
20260904110315 55 202 0.0 0.0 0.00 0.00 0.00 79 1012.5
20260904105826 56 202 0.0 0.0 0.00 0.00 0.00 79 1012.4
20260904105338 56 202 0.0 0.0 0.00 0.00 0.00 79 1012.3
20260904104827 56 202 0.0 0.0 0.00 0.00 0.00 79 1012.3
20260904104324 56 202 0.0 0.0 0.00 0.00 0.00 79 1012.3
20260904103835 57 202 0.0 0.0 0.00 0.00 0.00 80 1012.4
20260904103326 57 202 0.0 0.0 0.00 0.00 0.00 80 1012.3
20260904102818 57 202 0.0 0.0 0.00 0.00 0.00 81 1012.2
20260904102328 57 202 0.0 0.0 0.00 0.00 0.00 82 1012.3
20260904101819 57 202 0.0 0.0 0.00 0.00 0.00 83 1012.2
20260904101351 58 202 0.0 0.0 0.00 0.00 0.00 84 1012.3
20260904100821 58 202 0.0 0.0 0.00 0.00 0.00 84 1012.3
20260904100313 58 202 0.0 0.0 0.00 0.00 0.00 84 1012.4
20260904095824 58 202 0.0 0.0 0.00 0.00 0.00 83 1012.3
20260904095318 58 202 0.0 0.0 0.00 0.00 0.00 83 1012.3
20260904094829 59 202 0.0 0.0 0.00 0.00 0.00 83 1012.3
20260904094320 59 202 0.0 0.0 0.00 0.00 0.00 83 1012.3
20260904093811 59 202 0.0 0.0 0.00 0.00 0.00 83 1012.3
20260904093324 59 202 0.0 0.0 0.00 0.00 0.00 82 1012.3
20260904092815 59 202 0.0 0.0 0.00 0.00 0.00 82 1012.2
20260904092327 59 202 0.0 0.0 0.00 0.00 0.00 81 1012.3
20260904091817 58 202 0.0 0.0 0.00 0.00 0.00 80 1012.3
20260904091312 58 202 0.0 0.0 0.00 0.00 0.00 80 1012.1
20260904090846 58 202 0.0 0.0 0.00 0.00 0.00 79 1012.1
20260904090316 58 202 0.0 0.0 0.00 0.00 0.00 78 1012.1
20260904085826 59 202 0.0 0.0 0.00 0.00 0.00 78 1012.3
20260904085318 59 202 0.0 0.0 0.00 0.00 0.00 77 1012.4
20260904084829 59 202 0.0 0.0 0.00 0.00 0.00 77 1012.3
20260904084340 59 202 0.0 0.0 0.00 0.00 0.00 77 1012.4
20260904083811 59 202 0.0 0.0 0.00 0.00 0.00 78 1012.3
20260904083322 59 202 0.0 0.0 0.00 0.00 0.00 78 1012.3
20260904082812 59 202 0.0 0.0 0.00 0.00 0.00 78 1012.4
20260904082324 60 202 0.0 0.0 0.00 0.00 0.00 79 1012.4
20260904081840 60 202 0.0 0.0 0.00 0.00 0.00 79 1012.4
20260904081330 60 202 0.0 0.0 0.00 0.00 0.00 79 1012.5
20260904080820 60 202 0.0 0.0 0.00 0.00 0.00 79 1012.5
20260904080311 60 202 0.0 0.0 0.00 0.00 0.00 79 1012.6
20260904075822 60 202 0.0 0.0 0.00 0.00 0.00 79 1012.6
20260904075314 60 202 0.0 0.0 0.00 0.00 0.00 78 1012.6
20260904074845 60 202 0.0 0.0 0.00 0.00 0.00 78 1012.6
20260904074335 60 202 0.0 0.0 0.00 0.00 0.00 77 1012.6
20260904073826 61 202 0.0 0.0 0.00 0.00 0.00 77 1012.6
20260904073319 61 202 0.0 0.0 0.00 0.00 0.00 77 1012.7
20260904072815 61 202 0.0 0.0 0.00 0.00 0.00 76 1012.7
20260904072326 61 202 0.0 0.0 0.00 0.00 0.00 76 1012.6
20260904071817 61 202 0.0 0.0 0.00 0.00 0.00 76 1012.6
20260904071349 62 202 0.0 0.0 0.00 0.00 0.00 76 1012.6
20260904070819 62 202 0.0 0.0 0.00 0.00 0.00 75 1012.5
20260904070331 62 202 0.0 0.0 0.00 0.00 0.00 75 1012.4
20260904065823 62 202 0.0 0.0 0.00 0.00 0.00 74 1012.4
20260904065313 63 202 0.0 0.0 0.00 0.00 0.00 73 1012.4
20260904064845 63 202 0.0 0.0 0.00 0.00 0.00 72 1012.4
20260904064315 63 202 0.0 0.0 0.00 0.00 0.00 71 1012.4
20260904063826 63 202 0.0 0.0 0.00 0.00 0.00 70 1012.4
20260904063343 63 202 0.0 0.0 0.00 0.00 0.00 71 1012.4
20260904062813 63 202 0.0 0.0 0.00 0.00 0.00 71 1012.3
20260904062324 64 202 0.0 0.0 0.00 0.00 0.00 72 1012.3
20260904061815 63 202 0.0 0.0 0.00 0.00 0.00 74 1012.3
20260904061327 63 202 0.0 0.0 0.00 0.00 0.00 75 1012.4
20260904060817 64 202 0.0 0.0 0.00 0.00 0.00 75 1012.3
20260904060328 64 202 0.0 0.0 0.00 0.00 0.00 75 1012.4
20260904055817 64 202 0.0 0.0 0.00 0.00 0.00 75 1012.5
20260904055329 65 202 0.0 0.0 0.00 0.00 0.00 75 1012.5
20260904054822 65 202 0.0 0.0 0.00 0.00 0.00 74 1012.6